Theta_e
316 314 314 314 314 313 313 313 313 314 314 317 316 317 317 317 317 318 319 319 319 320 320 321 319 318 317 317 316 316 315 314 313 312 311 310 311 311 311 311 309 307 303 301
315 314 313 314 314 315 315 315 314 313 314 316 315 317 316 316 314 317 318 318 319 320 320 319 320 319 317 317 316 316 315 314 313 312 311 310 310 310 310 310 309 305 302 300
314 315 316 315 315 316 316 316 314 314 315 315 316 318 315 315 316 317 318 319 318 319 320 320 320 320 319 317 316 316 315 314 313 312 310 309 309 309 309 310 308 304 302 300
314 315 315 315 316 315 315 316 316 317 317 318 315 318 315 315 315 314 316 317 319 319 319 319 320 320 319 317 317 316 315 314 314 312 310 310 310 310 310 309 306 304 301 299
315 316 316 317 316 316 317 316 317 317 316 315 316 316 317 313 314 313 313 316 318 319 319 318 319 320 320 318 317 316 315 314 313 313 311 310 309 308 308 308 305 303 300 299
313 315 316 316 317 316 316 317 316 315 313 317 317 316 318 316 315 315 315 317 319 319 318 318 318 318 318 318 317 316 315 314 313 312 311 309 308 308 308 308 305 303 300 299
311 313 314 315 314 316 316 315 316 317 317 320 314 315 318 314 313 312 314 317 319 318 317 318 317 317 318 318 317 316 315 314 313 312 310 309 307 307 307 307 304 302 300 299
313 316 313 314 314 315 315 316 318 319 317 317 314 316 317 313 315 317 317 318 318 317 317 320 318 318 319 318 317 316 316 315 313 312 311 308 307 306 307 306 304 302 299 299
313 313 313 314 315 315 315 315 316 315 317 313 316 314 313 313 312 313 314 318 319 321 320 319 320 319 319 318 318 317 317 315 314 313 311 308 306 306 306 306 303 301 299 298
314 316 315 315 315 315 315 314 316 312 318 319 317 313 315 313 314 313 312 314 319 320 320 319 319 319 319 319 318 318 317 316 316 314 312 309 306 306 306 305 303 301 299 298
318 316 320 316 317 318 317 315 314 314 315 319 319 318 314 315 315 315 311 314 316 318 318 319 318 318 318 317 318 318 317 316 315 313 311 308 306 306 305 305 302 300 299 298
318 320 322 321 318 318 317 316 314 319 320 315 317 319 315 312 311 311 311 317 320 321 318 318 317 318 318 317 317 318 317 316 315 314 311 308 306 305 305 304 302 300 299 298
315 318 316 315 316 312 313 312 312 312 313 318 320 319 314 312 311 315 314 315 318 319 317 317 318 319 318 318 318 318 317 316 315 313 311 307 306 305 305 304 302 300 299 298
311 314 314 315 315 313 313 312 312 312 312 311 312 312 310 310 310 312 312 313 314 318 316 315 316 319 319 318 318 317 317 316 315 313 310 308 306 306 305 303 301 300 299 298
309 309 308 308 308 308 308 312 311 310 310 311 309 308 308 309 312 311 311 312 311 312 314 318 319 318 318 317 317 317 316 316 314 313 310 308 307 306 304 303 301 300 299 298
306 307 307 306 306 306 307 307 308 309 309 308 310 311 309 309 313 310 309 310 311 311 312 312 314 317 315 317 317 317 316 315 314 312 310 309 307 306 304 302 301 300 299 298
304 304 304 306 305 305 307 305 305 306 307 308 311 312 311 311 310 308 306 308 311 311 312 313 311 311 316 316 317 316 316 315 313 312 310 309 307 306 304 302 301 299 298 298
303 304 305 307 307 308 306 305 307 308 308 311 313 312 310 308 308 307 307 310 309 310 312 312 312 311 310 314 315 315 315 314 313 311 310 309 307 305 303 301 300 299 298 297
302 303 306 304 305 305 305 306 307 308 310 311 304 307 310 309 308 307 308 309 310 311 312 311 310 311 311 310 314 313 314 314 312 311 310 308 306 304 302 301 300 299 298 297
303 303 303 304 306 306 305 304 305 305 308 307 305 308 308 308 308 307 309 309 310 311 311 311 309 311 311 311 312 312 312 313 312 310 309 308 305 303 302 301 299 298 298 297
301 301 303 302 302 303 303 305 305 306 305 304 305 307 307 308 308 308 309 309 311 309 310 309 308 312 314 311 312 311 312 313 312 310 309 306 304 302 301 300 298 298 297 297
301 299 301 299 300 302 305 304 305 305 305 305 305 304 306 307 308 308 309 310 309 309 311 308 305 309 310 310 311 311 312 311 311 309 307 305 303 301 300 299 298 298 297 297
302 302 302 301 303 302 303 303 304 304 304 303 303 304 304 304 304 307 308 310 309 309 311 307 303 305 307 308 310 311 311 310 309 307 305 303 301 300 299 298 298 298 297 297
300 301 303 303 303 303 303 303 303 303 302 302 303 303 303 303 304 303 304 310 310 309 311 307 301 302 306 308 309 310 310 308 306 304 303 301 300 299 298 298 298 297 297 297
302 302 303 303 302 302 302 303 303 302 302 302 302 302 303 302 304 304 306 309 310 309 310 308 305 301 304 307 307 308 307 305 304 302 300 299 298 298 298 298 298 297 297 297
303 303 303 303 302 302 302 302 302 302 302 302 302 302 303 303 304 305 305 307 310 309 309 308 306 308 305 305 305 305 304 302 301 300 299 298 298 298 298 298 297 297 297 296
Wind_Speed
1 2 11 14 11 3 4 4 6 5 6 8 10 18 22 22 19 26 32 39 44 48 50 48 46 46 45 43 41 40 38 36 36 34 32 30 27 22 20 18 16 15 13 11
3 8 9 3 6 6 5 6 9 8 8 8 10 20 18 14 13 32 35 37 47 49 51 51 49 49 49 47 46 44 42 40 38 35 32 29 25 23 21 19 17 16 14 12
7 8 3 6 7 6 12 14 8 13 7 5 4 20 9 11 25 30 38 48 44 51 51 51 53 53 54 54 52 50 48 44 40 36 33 32 28 25 23 21 19 16 15 13
6 15 16 6 6 12 15 8 13 12 3 9 4 15 7 6 14 13 30 37 46 50 52 50 51 53 56 57 54 52 49 46 42 38 37 36 32 27 23 20 18 17 15 14
9 4 5 7 15 6 7 7 9 7 6 2 5 4 2 3 7 11 14 38 45 47 47 47 48 53 56 55 57 53 50 46 43 41 40 36 32 28 24 21 19 17 15 15
14 11 5 8 4 9 3 3 2 3 4 7 10 8 28 11 13 11 16 32 40 40 42 45 43 44 48 53 55 55 51 47 44 42 39 37 33 29 26 22 19 16 16 15
5 6 6 17 13 3 4 5 4 4 2 15 9 9 22 4 6 9 15 32 36 36 31 34 38 42 43 48 54 56 52 49 45 42 39 37 33 30 25 21 19 17 16 15
6 12 7 3 13 11 11 13 9 6 7 15 5 10 13 10 15 21 30 39 43 44 39 28 29 37 38 42 49 51 53 49 46 42 39 36 33 30 25 21 19 17 15 13
6 7 7 3 5 7 5 7 15 11 21 5 12 16 13 11 9 12 22 32 37 40 38 31 27 34 36 40 44 46 49 50 47 42 39 36 34 31 26 22 20 17 15 14
6 16 7 6 3 3 6 4 3 2 9 21 14 6 12 6 7 11 11 21 36 34 35 34 33 34 37 39 37 40 46 49 45 42 39 36 34 29 24 22 21 17 13 14
5 5 11 5 3 13 10 6 4 4 7 17 19 14 7 14 16 17 12 26 31 33 34 36 32 34 35 36 37 39 43 47 47 43 39 36 33 29 25 24 21 17 14 15
6 7 17 24 20 16 16 9 3 4 15 6 14 24 3 4 8 8 15 33 39 40 34 25 29 33 34 37 39 38 40 47 47 42 38 35 31 28 26 25 22 18 15 15
3 2 9 17 7 7 6 11 15 15 7 14 14 15 12 21 27 36 33 39 35 36 33 27 22 30 34 37 39 40 41 44 45 42 39 35 32 30 28 25 22 19 17 16
19 6 13 16 19 15 25 26 22 14 8 14 16 22 32 30 24 21 38 45 45 45 41 26 25 32 36 38 39 41 41 42 44 42 39 37 34 31 29 24 22 20 18 17
4 14 14 20 23 23 26 26 21 24 20 15 27 25 26 22 18 12 25 35 45 45 44 50 44 38 39 41 41 43 42 42 43 41 40 38 32 29 27 24 23 21 20 18
4 16 20 24 24 24 26 26 27 24 29 25 27 27 22 33 20 21 23 28 34 35 38 40 51 41 38 46 45 46 44 43 42 41 41 36 33 30 28 26 25 22 20 18
12 8 8 20 24 20 15 25 24 22 27 20 17 7 9 13 19 23 26 30 24 36 39 45 39 44 46 43 47 47 46 44 41 39 40 37 33 31 29 27 26 23 21 18
12 15 5 9 15 14 9 15 13 16 17 13 6 5 9 17 27 30 29 18 30 34 41 50 47 36 38 44 45 46 45 43 40 39 39 36 34 31 29 28 26 23 20 18
13 3 5 5 10 18 17 6 9 13 12 12 14 20 18 21 19 22 21 28 30 36 38 45 48 43 38 39 42 44 45 41 40 40 39 36 33 31 30 30 26 23 20 17
2 5 3 10 11 10 13 13 14 8 8 10 18 17 21 18 11 14 35 38 43 38 46 48 45 42 40 40 39 46 41 40 41 39 37 34 31 30 30 28 24 21 18 16
4 4 8 7 5 10 12 4 4 5 8 21 29 26 27 14 17 38 43 42 40 42 45 56 34 32 37 36 36 39 40 41 37 34 34 32 31 28 27 25 22 18 15 16
6 3 8 4 4 10 1 14 8 12 24 31 29 32 25 28 34 37 36 35 38 45 46 55 39 25 31 35 34 39 39 36 33 32 32 31 28 29 26 22 19 16 15 15
7 8 7 7 9 15 39 30 38 33 27 31 34 34 35 38 37 39 38 37 38 38 41 46 32 26 27 26 31 36 35 31 30 31 32 29 28 26 22 20 16 15 14 14
5 13 6 10 17 19 30 37 39 34 32 33 36 39 39 36 35 44 40 36 35 40 34 37 21 13 20 23 26 27 28 28 29 31 29 28 25 22 19 16 15 14 15 14
14 7 13 16 20 30 29 24 29 37 35 37 37 37 37 39 37 39 34 33 30 30 27 26 21 5 16 20 21 21 24 27 27 27 26 23 20 18 15 14 14 15 14 15
13 13 5 13 24 23 32 38 37 37 40 39 38 38 40 37 35 35 38 32 24 26 22 21 20 4 8 13 18 21 22 24 25 23 22 19 17 14 14 14 15 14 14 16
Wind_Direction
220 120 222 206 208 175 194 214 240 248 237 185 228 239 253 246 215 236 238 238 237 237 246 234 231 231 230 228 229 229 228 227 228 229 230 232 238 245 253 259 265 267 268 268
7 248 255 193 237 253 264 254 254 285 264 197 252 253 242 248 220 228 237 240 242 247 246 241 236 232 230 228 228 230 231 230 231 233 236 237 241 244 249 254 258 257 261 257
183 232 107 193 236 223 244 243 255 252 316 245 317 271 248 249 243 239 244 251 249 250 249 246 239 232 230 228 227 230 231 231 233 234 232 233 234 240 244 248 250 251 257 253
235 265 255 229 214 196 250 214 240 259 245 265 170 283 239 239 242 224 237 244 250 250 253 249 245 237 232 229 230 230 231 231 231 233 233 235 240 245 248 246 244 247 252 249
239 261 246 241 237 194 242 216 212 217 212 360 212 299 281 6 273 264 248 249 254 260 257 251 247 245 238 231 229 229 229 229 231 233 234 235 237 240 241 240 239 244 247 245
248 241 222 214 225 208 269 191 17 65 106 242 220 184 281 258 230 248 262 259 264 265 264 260 257 249 240 233 230 228 227 228 230 232 233 234 236 237 236 236 237 241 243 241
314 233 236 225 250 198 157 98 284 281 173 248 161 193 237 239 288 229 251 267 273 273 273 270 246 236 233 231 229 225 224 226 227 229 230 232 234 234 236 234 236 239 238 237
270 295 185 200 206 199 207 194 213 218 220 263 162 228 248 223 253 256 254 264 274 280 278 269 244 234 231 229 227 224 221 223 226 227 229 231 231 232 232 233 236 238 237 239
300 259 310 297 255 174 222 214 238 252 265 265 258 266 280 252 263 261 261 265 267 276 278 259 253 237 229 228 227 223 221 222 224 226 228 228 227 227 227 231 234 234 237 242
291 300 254 289 307 287 206 180 281 322 259 255 255 252 246 319 319 296 269 263 269 274 281 272 254 242 231 230 228 222 220 223 224 225 227 227 226 226 227 230 231 233 240 244
333 241 287 325 234 279 289 270 234 246 212 257 266 262 212 242 250 264 277 280 285 291 283 280 265 247 236 230 223 220 219 220 223 224 224 223 223 224 227 230 229 232 243 247
348 297 284 287 281 259 246 267 350 270 280 275 260 262 340 284 283 277 275 293 303 292 296 287 270 252 238 229 224 218 219 219 222 222 222 222 221 223 227 227 226 231 245 249
332 288 304 300 317 27 23 332 306 310 267 262 277 271 354 347 334 323 318 303 288 289 283 291 270 251 240 230 224 220 220 221 221 219 219 217 218 222 224 225 224 230 247 252
303 244 256 272 283 287 285 292 288 262 267 284 273 298 301 305 309 337 335 333 305 289 291 292 267 252 242 234 226 222 221 221 221 218 216 216 217 221 222 221 225 232 248 254
303 274 279 278 282 284 284 277 278 279 259 247 270 267 269 276 289 319 314 327 326 325 305 291 285 275 250 236 228 226 223 222 220 218 216 216 218 219 220 220 226 234 248 256
255 276 277 277 277 274 277 279 274 262 270 269 254 266 264 275 308 320 328 318 315 324 326 307 294 276 260 240 231 228 224 223 220 217 218 217 216 217 217 220 225 235 246 252
271 263 273 275 277 282 278 257 263 261 265 268 268 279 11 328 315 316 313 302 312 316 321 320 317 289 275 246 235 230 227 224 219 217 216 216 216 216 215 220 225 235 245 253
257 273 246 271 284 255 289 305 282 270 274 303 296 337 292 283 285 301 296 290 317 321 321 319 311 296 283 265 239 232 227 224 217 215 214 214 214 215 215 219 224 237 243 255
206 235 280 280 285 280 279 342 345 324 304 85 351 311 297 294 301 314 318 315 313 321 314 314 306 297 286 265 257 237 223 219 214 213 212 211 210 211 214 217 226 237 244 255
84 229 215 290 284 280 279 316 14 337 286 333 307 306 309 309 310 309 320 318 313 321 321 319 304 290 276 257 253 236 219 212 210 210 209 208 207 209 213 219 230 235 247 254
292 299 251 267 277 278 271 238 348 332 286 303 305 305 302 288 278 297 306 320 310 317 326 328 310 280 266 247 243 226 212 210 208 205 204 202 203 208 213 221 226 237 241 261
267 292 283 285 236 276 66 336 298 314 306 302 303 302 296 296 294 297 293 305 319 321 332 332 318 284 255 238 229 214 206 201 200 200 196 196 200 203 211 219 228 229 249 263
254 202 260 199 254 275 286 291 296 298 287 299 303 304 305 306 301 300 298 297 320 324 332 337 317 274 238 220 210 200 192 189 190 190 189 192 197 204 213 219 220 237 255 267
260 241 252 289 269 264 283 298 298 298 302 303 302 298 298 296 302 301 300 292 314 330 330 344 321 235 198 187 187 186 176 178 181 182 184 189 195 203 204 214 229 250 259 271
273 275 261 262 279 285 286 297 301 301 299 299 302 299 296 303 311 307 300 295 305 333 328 338 331 234 164 158 164 166 168 170 175 179 181 188 193 198 208 226 246 256 264 273
243 255 257 270 280 287 290 302 302 302 306 312 308 310 314 311 309 321 313 307 299 338 315 331 321 331 131 152 152 153 160 167 171 175 181 185 191 201 218 234 246 255 267 279